[[{"header":{"parameterUnit":"m.s-1","parameterCategory":1,"la1":30.2991,"la2":30.254,"lo1":-89.0895,"lo2":-89.0444,"dy":0.0017,"dx":0.0017,"nx":28,"ny":28,"refTime":"2026-01-03T09:00:00:Z","depth":0,"parameterNumber":2,"parameterNumberName":"U-component_of_WINDS"},"data":[0,0,0,0,0,0,0,0,0,0,0,0,0,0,0,0,0,0,0,0,0,0,0,0,0,0,0,0,0,0,0,0,0,0,0,0,0,0,0,0,0,0,0,0,0,0,0,0,0,0,0,0,0,0,0,0,0,0,2.6866,2.6867,0,2.6965,2.6966,2.6967,2.6953,2.6951,2.6949,2.6948,2.7053,2.7057,2.7061,0,0,0,0,0,0,0,0,0,0,0,0,0,2.6671,2.6675,2.6866,2.6868,2.6869,2.6964,2.6966,2.6967,2.6953,2.6951,2.6949,2.6947,2.7051,2.7056,2.7062,0,0,0,0,0,0,0,0,0,0,0,0,0,2.6761,2.6676,2.6866,2.6873,2.6875,2.6964,2.6966,2.6968,2.6953,2.6951,2.6948,2.6946,2.705,2.7056,2.7062,2.7153,0,0,2.7082,2.7085,0,0,0,0,0,0,0,0,2.6756,2.6769,2.6871,2.6873,2.6875,2.6944,2.6935,2.703,2.6954,2.6924,2.6948,2.6945,2.7019,2.7028,2.7052,2.7157,2.7162,2.7083,2.7087,2.709,2.7091,0,0,0,0,0,0,0,2.675,2.6764,2.6905,2.6872,2.6875,2.6873,2.6883,2.6953,2.6984,2.6926,2.6925,2.6937,2.7019,2.7045,2.7054,2.7164,2.7083,2.7088,2.7093,2.7095,2.735,2.7353,0,0,0,0,0,0,2.6741,2.6759,2.6902,2.6908,2.6808,2.6878,2.689,2.6924,2.6983,2.699,2.6939,2.6936,2.7036,2.7046,2.7058,2.7168,2.709,2.7096,2.7099,2.7348,2.7351,2.7354,0,0,0,0,0,0,2.6737,2.6754,2.6898,2.6834,2.6852,2.6884,2.6923,2.6927,2.6953,2.6993,2.6999,2.6959,2.7034,2.7049,2.7129,2.7172,2.7099,2.7105,2.7344,2.7349,2.7353,2.739,0,0,0,0,0,0,2.6732,2.6753,2.6786,2.6834,2.6855,2.6967,2.6926,2.6931,2.6964,2.6961,2.7014,2.702,2.7033,2.712,2.7136,2.7179,2.711,2.734,2.7346,2.7351,2.7385,2.7395,2.7403,0,0,0,0,0,2.6725,2.6793,2.6788,2.6805,2.6897,2.6969,2.6981,2.6993,2.6968,2.7002,2.7028,2.7019,2.7164,2.7128,2.7146,2.7192,2.7338,2.7345,2.7351,2.7381,2.7393,2.7403,0,0,0,0,0,0,2.675,2.68,2.6794,2.688,2.692,2.6966,2.701,2.7005,2.7055,2.705,2.7065,2.7077,2.7159,2.7184,2.7142,2.7284,2.7248,2.7258,2.7264,2.7276,2.7285,2.7278,2.7115,0,0,0,0,0,2.6766,2.6818,2.6859,2.6931,2.6951,2.6978,2.7009,2.7015,2.7058,2.7075,2.7107,2.715,2.7206,2.7242,2.7296,2.7388,2.7401,2.7429,2.7438,2.7446,2.7455,2.7507,2.7521,2.7375,2.7375,2.7375,0,0,2.6798,2.6832,2.6864,2.6937,2.6969,2.7025,2.6992,2.7052,2.7094,2.7085,2.7163,2.7188,2.7237,2.7325,2.7365,2.7348,2.7498,2.7454,2.7459,2.7465,2.7515,2.7529,2.7541,2.738,2.7379,2.7378,0,0,2.6887,2.6917,2.698,2.7013,2.7061,2.7078,2.7094,2.7141,2.7157,2.7235,2.723,2.7281,2.7376,2.7412,2.7443,2.7546,2.754,2.7563,2.7612,2.7663,2.7674,2.7684,2.7723,2.7736,2.7572,2.7572,2.7572,0,2.6921,2.7004,2.7014,2.7075,2.7108,2.7101,2.7167,2.7199,2.7263,2.7286,2.7266,2.7387,2.7419,2.7516,2.7541,2.7566,2.7585,2.7557,2.7671,2.7682,2.7692,2.7728,2.7742,2.7575,2.7574,2.7574,2.7574,0,2.7045,2.7103,2.7149,2.7209,2.7248,2.7311,2.7332,2.737,2.7373,2.7393,2.7474,2.7513,2.7575,2.7598,2.7602,2.7696,2.7684,2.7668,2.7632,2.7708,2.7743,2.7757,2.7578,2.7577,2.7577,2.7576,0,0,2.7152,2.7218,2.7235,2.7263,2.7316,2.7362,2.7426,2.7485,2.7518,2.7563,2.7618,2.7699,2.7684,2.7719,2.7727,2.7772,2.7853,2.775,2.7752,2.7769,2.7961,2.7974,2.799,2.7849,2.7852,2.7854,2.7957,0,2.7246,2.7357,2.7368,2.7468,2.7523,2.7518,2.7574,2.7614,2.7634,2.7685,2.7708,2.7766,2.7741,2.7763,2.7807,2.7834,2.7892,2.7827,2.7903,2.7905,2.7891,2.8008,2.8021,2.8116,2.7971,2.7973,2.7975,0,2.737,2.7417,2.7522,2.757,2.7593,2.7643,2.7699,2.7746,2.7793,2.7805,2.7844,2.7847,2.7915,2.7876,2.7971,2.7926,2.7958,2.7977,2.7981,2.7989,2.7945,2.802,2.8147,2.8161,2.7996,2.7994,2.7993,0,2.7438,2.7529,2.7604,2.7628,2.7684,2.772,2.7746,2.7789,2.7824,2.7874,2.7898,2.7955,2.7987,2.8032,2.8051,2.8021,2.8146,2.8108,2.8159,2.8159,2.8186,2.8185,2.8321,2.8206,2.8205,2.8205,2.8205,0,2.7542,2.7607,2.7635,2.7681,2.7755,2.7768,2.7841,2.7865,2.7904,2.7957,2.7956,2.8006,2.8027,2.8081,2.8096,2.8174,2.8188,2.8201,2.8205,2.8202,2.82,2.8223,2.8217,2.8209,2.8208,2.8207,2.8207,0,2.7631,2.7652,2.7734,2.7781,2.7794,2.7846,2.7888,2.7933,2.7954,2.802,2.8036,2.8069,2.8132,2.8155,2.8232,2.8243,2.8333,2.8331,2.8317,2.8318,2.8368,2.8364,2.8525,2.8548,2.8416,2.8418,2.8419,0,2.7696,2.7746,2.7798,2.7833,2.7859,2.7915,2.7951,2.7967,2.8005,2.8062,2.8102,2.8164,2.8215,2.8316,2.8348,2.8408,2.8408,2.846,2.8417,2.8412,2.841,2.8407,2.8413,2.8468,2.847,2.8471,2.8472,0,2.781,2.7818,2.7869,2.7925,2.7968,2.8013,2.8056,2.8085,2.8108,2.8151,2.8215,2.8255,2.8333,2.8396,2.8457,2.8486,2.8484,2.8485,2.85,2.8498,2.8488,2.8495,2.834,2.8481,2.848,2.848,2.8479,2.8479,2.789,2.7934,2.7978,2.8036,2.807,2.8111,2.8157,2.8183,2.8236,2.83,2.8307,2.8377,2.8424,2.8506,2.8537,2.8593,2.8579,2.86,2.8606,2.8611,2.8616,2.8479,2.8604,2.8604,2.8604,2.8603,2.8603,0,2.8004,2.8033,2.8085,2.8146,2.8192,2.8184,2.8233,2.8272,2.8333,2.8376,2.8426,2.8501,2.8562,2.8599,2.8661,2.8699,2.8699,2.8715,2.8712,2.8719,2.8624,2.8605,2.8713,2.8713,2.8713,2.8713,2.8713,2.8713,2.8069,2.8144,2.8158,2.8252,2.828,2.8347,2.8375,2.8414,2.8449,2.8531,2.8582,2.8605,2.8647,2.8712,2.8769,2.8778,2.8802,2.8818,2.8827,2.8737,2.8726,2.8715,2.8697,2.8823,2.8823,2.8918,2.8919,2.8919]},{"header":{"parameterUnit":"m.s-1","parameterCategory":1,"la1":30.2991,"la2":30.254,"lo1":-89.0895,"lo2":-89.0444,"dy":0.0017,"dx":0.0017,"nx":28,"ny":28,"refTime":"2026-01-03T09:00:00:Z","depth":0,"parameterNumber":3,"parameterNumberName":"V-component_of_WINDS"},"data":[0,0,0,0,0,0,0,0,0,0,0,0,0,0,0,0,0,0,0,0,0,0,0,0,0,0,0,0,0,0,0,0,0,0,0,0,0,0,0,0,0,0,0,0,0,0,0,0,0,0,0,0,0,0,0,0,0,0,3.3641,3.3641,0,3.3712,3.3712,3.3713,3.3692,3.369,3.3689,3.3687,3.3762,3.3765,3.3769,0,0,0,0,0,0,0,0,0,0,0,0,0,3.3489,3.3492,3.364,3.3641,3.3642,3.3711,3.3712,3.3713,3.3692,3.369,3.3688,3.3686,3.3761,3.3765,3.3769,0,0,0,0,0,0,0,0,0,0,0,0,0,3.3557,3.3493,3.364,3.364,3.364,3.3711,3.3712,3.3714,3.3692,3.369,3.3688,3.3686,3.3759,3.3764,3.3769,3.3846,0,0,3.3785,3.3787,0,0,0,0,0,0,0,0,3.3553,3.3562,3.3639,3.364,3.3641,3.369,3.3686,3.3758,3.3693,3.3673,3.3687,3.3684,3.374,3.3747,3.3765,3.3849,3.3852,3.3785,3.3788,3.3791,3.3792,0,0,0,0,0,0,0,3.3548,3.3559,3.3669,3.364,3.3641,3.3637,3.3644,3.37,3.3718,3.3674,3.3673,3.3681,3.374,3.376,3.3767,3.3854,3.3785,3.379,3.3793,3.3795,3.4007,3.401,0,0,0,0,0,0,3.3543,3.3555,3.3666,3.3671,3.359,3.3641,3.3649,3.3677,3.3717,3.3721,3.3683,3.368,3.3752,3.3761,3.3769,3.3863,3.3791,3.3795,3.3798,3.4004,3.4008,3.401,0,0,0,0,0,0,3.3539,3.3553,3.3663,3.3613,3.3627,3.3646,3.3677,3.3679,3.3699,3.3724,3.3728,3.37,3.3751,3.3762,3.3827,3.3866,3.3798,3.3802,3.4001,3.4005,3.4009,3.4051,0,0,0,0,0,0,3.3535,3.3552,3.358,3.3614,3.3629,3.372,3.368,3.3682,3.3708,3.3704,3.3741,3.3745,3.375,3.382,3.3832,3.3871,3.3806,3.3998,3.4003,3.4008,3.4046,3.4056,3.4064,0,0,0,0,0,3.353,3.3589,3.3582,3.3595,3.3665,3.3722,3.3731,3.3735,3.3711,3.3741,3.3757,3.3744,3.3859,3.3827,3.3841,3.3882,3.3996,3.4002,3.4007,3.4042,3.4054,3.4064,0,0,0,0,0,0,3.356,3.3593,3.3586,3.3657,3.3687,3.3718,3.3755,3.3747,3.3785,3.378,3.3784,3.3793,3.3861,3.3877,3.3841,3.3959,3.3924,3.3933,3.3946,3.3957,3.3966,3.3961,3.381,0,0,0,0,0,3.3574,3.3617,3.3644,3.3705,3.372,3.3735,3.376,3.3761,3.3792,3.3805,3.3826,3.3858,3.3901,3.393,3.3971,3.4048,3.4057,3.4083,3.4092,3.4099,3.4108,3.4153,3.4165,3.403,3.4029,3.4029,0,0,3.3606,3.3629,3.3656,3.3712,3.3735,3.378,3.3746,3.3795,3.3829,3.3812,3.3876,3.3893,3.3928,3.4001,3.4034,3.4017,3.4147,3.4107,3.4112,3.4117,3.416,3.4173,3.4184,3.4033,3.4033,3.4032,0,0,3.3686,3.3707,3.3761,3.3786,3.3821,3.3831,3.3844,3.3877,3.3888,3.3951,3.3941,3.3982,3.4056,3.4082,3.4106,3.4198,3.4188,3.4211,3.4258,3.4302,3.4312,3.4322,3.4357,3.437,3.4219,3.4219,3.4219,0,3.3721,3.3788,3.379,3.3841,3.3867,3.3853,3.3909,3.3932,3.398,3.3999,3.3979,3.4073,3.4096,3.4176,3.4199,3.4217,3.4234,3.4208,3.431,3.432,3.4329,3.4363,3.4376,3.4222,3.4221,3.4221,3.4221,0,3.383,3.3877,3.3916,3.3963,3.3993,3.4045,3.4057,3.4087,3.4086,3.4098,3.4165,3.4192,3.4239,3.4258,3.4257,3.4339,3.4327,3.4309,3.4274,3.4345,3.4377,3.439,3.4226,3.4225,3.4224,3.4223,0,0,3.3931,3.3979,3.3994,3.4016,3.4055,3.4092,3.4145,3.4191,3.4218,3.4251,3.4298,3.4361,3.4345,3.4372,3.4373,3.4411,3.4486,3.4389,3.439,3.4408,3.4581,3.4596,3.4611,3.4479,3.4482,3.4484,3.4579,0,3.4017,3.411,3.4114,3.4199,3.4244,3.4233,3.4279,3.4309,3.4322,3.4363,3.4378,3.4424,3.4398,3.4414,3.4451,3.4469,3.4521,3.4462,3.4524,3.4527,3.4518,3.4627,3.4643,3.4732,3.4591,3.4593,3.4595,0,3.4129,3.4167,3.4256,3.4291,3.431,3.4351,3.4396,3.4434,3.4468,3.4475,3.4506,3.4503,3.4559,3.4521,3.46,3.4559,3.4585,3.4598,3.4601,3.4609,3.4566,3.464,3.476,3.4774,3.4614,3.4613,3.4611,0,3.4197,3.427,3.4333,3.4352,3.4394,3.4424,3.4442,3.4474,3.4503,3.4541,3.456,3.4605,3.463,3.4665,3.4675,3.4646,3.4755,3.4717,3.4764,3.4764,3.4789,3.4788,3.4917,3.4802,3.4802,3.4801,3.4801,0,3.4293,3.4349,3.4365,3.4404,3.4467,3.4472,3.4535,3.4552,3.4581,3.4624,3.4617,3.4658,3.4667,3.4711,3.4719,3.4784,3.4795,3.4804,3.4806,3.4806,3.4805,3.4824,3.482,3.4805,3.4804,3.4803,3.4803,0,3.438,3.4393,3.4462,3.4496,3.4506,3.4551,3.4581,3.4619,3.4632,3.4687,3.4701,3.4721,3.4772,3.4785,3.4846,3.4851,3.493,3.4924,3.4918,3.4919,3.4967,3.4963,3.5114,3.5136,3.5004,3.5006,3.5007,0,3.4442,3.4485,3.4524,3.4552,3.4573,3.4619,3.4648,3.4655,3.4686,3.4729,3.4763,3.4813,3.4854,3.4937,3.4958,3.5005,3.5003,3.5053,3.501,3.501,3.5007,3.5005,3.5011,3.5061,3.5063,3.5064,3.5065,0,3.4551,3.4555,3.4597,3.4642,3.4678,3.4713,3.4747,3.4772,3.4784,3.4819,3.4871,3.4903,3.4966,3.5017,3.5065,3.5086,3.5079,3.5078,3.5092,3.5094,3.5089,3.5095,3.4943,3.5075,3.5074,3.5073,3.5072,3.5072,3.4629,3.4667,3.4701,3.4749,3.4776,3.4808,3.4847,3.4865,3.4909,3.496,3.4962,3.502,3.5055,3.5119,3.5142,3.5189,3.5174,3.5193,3.5199,3.5204,3.5209,3.508,3.5197,3.5197,3.5196,3.5196,3.5196,0,3.4739,3.4761,3.4805,3.4853,3.4892,3.488,3.4918,3.4951,3.5002,3.5035,3.5076,3.5138,3.5188,3.5213,3.5263,3.5295,3.5293,3.5308,3.5307,3.5313,3.5218,3.5203,3.5309,3.5309,3.5309,3.5309,3.5309,3.5309,3.4801,3.4867,3.4876,3.4956,3.4977,3.5033,3.5056,3.5087,3.5114,3.5183,3.5225,3.524,3.5271,3.5324,3.537,3.5376,3.5396,3.5414,3.5419,3.533,3.5319,3.5308,3.5293,3.5417,3.5417,3.5509,3.551,3.5511]}]]